Location: ??????
(38.0131°N, 23.7723°E)
Time: 02:37:33
(UTC+00:00)

CSL-04 Rocket - Pass Details

Date: 17 October 2021
Orbit: 805 x 860 km, 98.9° (Epoch: 04 December)

Event Time Altitude Azimuth Distance (km) Brightness Sun altitude
Exits shadow 17:31:34 46° 100° (E) 1,133 3.9 -21.8°
Maximum altitude 17:32:25 50° 71° (ENE) 1,077 3.8 -22.0°
Drops below altitude 10° 17:37:45 10° 358° (N) 2,501 6.2 -23.1°
Sets 17:40:12 0° 353° (N) 3,444 7.0 -23.5°
